Flag for United Kingdom Weather past 2 weeks in Exeter, England, United Kingdom

Now
55 °F

Passing clouds.


Feels Like: 53 °F
Forecast: 49 / 61 °F
Wind: 9 mph from Northwest

Location: Exeter Airport

Current Time: Sep 2, 2015 at 9:38:35 AM

Latest Report: Sep 2, 2015 at 9:20 AM


Visibility: N/A

Pressure: 30.12 "Hg

Humidity: 88%

Dew point: 52 °F

Location of ExeterLocation

Historic Weather in Exeter — Graph

°F

Exeter temperature yesterday

Maximum temperature yesterday: 66 °F (at 2:20 PM)
Minimum temperature yesterday: 46 °F (at 6:50 AM)
Average temperature yesterday: 58 °F

Past Weeks' High & Low Weather Summary

 TemperatureHumidityPressure
High72 °F (Aug 18, 3:20 PM)100% (Aug 18, 8:20 AM)30.15 "Hg (Aug 18, 8:20 AM)
Low45 °F (Sep 2, 5:50 AM)50% (Aug 18, 3:20 PM)29.45 "Hg (Aug 24, 6:20 AM)
Average61 °F88%29.89 "Hg
* Reported Aug 18 8:20 AM — Sep 2 8:20 AM, Exeter, Weather by CustomWeather, © 2015

Note: Actual official high and low records may vary slightly from our data, if they occured in-between our weather recording intervals... More about our weather records

Advertising

Exeter weather history for previous 24 hours

 ConditionsComfort  
Time TempWeatherWind HumidityBarometerVisibility
8:20 AM
Wed, Sep 2
52 °FSunny.6 mph94%30.12 "Hg10 mi
7:50 AM50 °FSunny.2 mph100%30.12 "Hg10 mi
7:20 AM46 °FClear.2 mph100%30.09 "Hg10 mi
6:50 AM46 °FClear.1 mph100%30.09 "Hg10 mi
6:20 AM46 °FClear.1 mph100%30.09 "Hg10 mi
5:50 AM45 °FClear.1 mph100%30.09 "Hg10 mi
1:50 AM48 °FClear.No wind94%30.12 "Hg10 mi
1:20 AM48 °FPassing clouds.2 mph94%30.15 "HgN/A
12:50 AM48 °FPassing clouds.3 mph94%30.15 "HgN/A
12:20 AM50 °FPassing clouds.7 mph94%30.15 "HgN/A
11:50 PM
Tue, Sep 1
50 °FPassing clouds.3 mph94%30.15 "HgN/A
10:20 PM52 °FPassing clouds.3 mph88%30.15 "HgN/A
9:50 PM52 °FPassing clouds.5 mph94%30.15 "HgN/A
9:20 PM54 °FPassing clouds.3 mph88%30.15 "HgN/A
8:50 PM54 °FPassing clouds.3 mph88%30.15 "HgN/A
8:20 PM55 °FPassing clouds.6 mph82%30.12 "HgN/A
7:50 PM57 °FPassing clouds.7 mph82%30.12 "HgN/A
7:20 PM61 °FPassing clouds.10 mph68%30.12 "HgN/A
6:50 PM63 °FPassing clouds.13 mph68%30.12 "HgN/A
6:20 PM63 °FPassing clouds.9 mph68%30.12 "HgN/A
5:50 PM64 °FPassing clouds.13 mph64%30.12 "HgN/A
5:20 PM63 °FPassing clouds.12 mph68%30.12 "HgN/A
4:20 PM66 °FScattered clouds.12 mph60%30.12 "HgN/A
3:50 PM66 °FScattered clouds.13 mph60%30.12 "HgN/A
3:20 PM66 °FPassing clouds.13 mph60%30.12 "HgN/A
2:50 PM66 °FScattered clouds.14 mph60%30.12 "HgN/A
2:20 PM66 °FScattered clouds.13 mph64%30.12 "HgN/A
1:50 PM64 °FPassing clouds.12 mph64%30.12 "HgN/A
1:20 PM64 °FPassing clouds.10 mph68%30.12 "HgN/A
12:50 PM64 °FPassing clouds.10 mph68%30.12 "HgN/A
12:20 PM64 °FPassing clouds.13 mph64%30.12 "HgN/A
11:50 AM63 °FPassing clouds.12 mph68%30.12 "HgN/A
11:20 AM63 °FPassing clouds.13 mph73%30.12 "HgN/A
10:50 AM61 °FPassing clouds.12 mph77%30.12 "HgN/A
10:20 AM61 °FPassing clouds.10 mph83%30.12 "HgN/A
9:50 AM59 °FPassing clouds.8 mph88%30.09 "HgN/A
9:20 AM59 °FPassing clouds.8 mph88%30.09 "HgN/A
Weather by CustomWeather, © 2015

See weather overviewHow to use our weather pages